Location: Saint-Denis
(20.8800°S, 55.4481°E)
Time: 14:46:56
(UTC+04:00)

FENGYUN 1C DEB - Pass Details

Date: 23 February 2024
Orbit: 798 x 864 km, 98.6° (Epoch: 25 April)

Event Time Altitude Azimuth Distance (km) Brightness Sun altitude
Rises 20:25:42 0° 186° (S) 3,443 ? -22.3°
Reaches altitude 10° 20:28:27 10° 197° (SSW) 2,491 ? -22.9°
Maximum altitude 20:32:56 26° 252° (WSW) 1,609 ? -23.8°
Drops below altitude 10° 20:37:20 10° 307° (NW) 2,435 ? -24.8°
Sets 20:40:01 0° 319° (NW) 3,350 ? -25.4°
